| time (UTC) | temp F | wind direction | speed knots | gust knots | rain 1hr in | rain 24hr in | rain mn in | humidity % | barometer mb |
| 20260906223533 | 80 | 210 | 9.6 | 21.7 | 0.00 | 0.00 | 0.00 | 20 | 1008.7 |
| 20260906223033 | 80 | 208 | 7.8 | 21.7 | 0.00 | 0.00 | 0.00 | 19 | 1008.6 |
| 20260906222534 | 80 | 228 | 10.4 | 19.1 | 0.00 | 0.00 | 0.00 | 20 | 1008.6 |
| 20260906222033 | 80 | 220 | 10.4 | 18.2 | 0.00 | 0.00 | 0.00 | 20 | 1008.7 |
| 20260906221533 | 80 | 242 | 7.0 | 20.9 | 0.00 | 0.00 | 0.00 | 21 | 1008.8 |
| 20260906221032 | 81 | 222 | 8.7 | 20.9 | 0.00 | 0.00 | 0.00 | 21 | 1008.9 |
| 20260906220532 | 81 | 213 | 10.4 | 21.7 | 0.00 | 0.00 | 0.00 | 20 | 1009.0 |
| 20260906220032 | 82 | 212 | 13.0 | 21.7 | 0.00 | 0.00 | 0.00 | 19 | 1008.8 |
| 20260906215531 | 83 | 220 | 10.4 | 15.6 | 0.00 | 0.00 | 0.00 | 17 | 1008.8 |
| 20260906215031 | 83 | 254 | 9.6 | 16.5 | 0.00 | 0.00 | 0.00 | 17 | 1008.8 |
| 20260906214531 | 83 | 223 | 12.2 | 16.5 | 0.00 | 0.00 | 0.00 | 16 | 1008.7 |
| 20260906214031 | 83 | 220 | 8.7 | 13.9 | 0.00 | 0.00 | 0.00 | 18 | 1008.7 |
| 20260906213531 | 83 | 300 | 2.6 | 10.4 | 0.00 | 0.00 | 0.00 | 18 | 1008.5 |
| 20260906213033 | 83 | 237 | 5.2 | 11.3 | 0.00 | 0.00 | 0.00 | 18 | 1008.7 |
| 20260906212530 | 84 | 261 | 7.8 | 11.3 | 0.00 | 0.00 | 0.00 | 16 | 1008.7 |
| 20260906212030 | 84 | 268 | 1.7 | 7.0 | 0.00 | 0.00 | 0.00 | 17 | 1008.6 |
| 20260906211529 | 83 | 212 | 1.7 | 9.6 | 0.00 | 0.00 | 0.00 | 18 | 1008.7 |
| 20260906211029 | 83 | 213 | 3.5 | 12.2 | 0.00 | 0.00 | 0.00 | 17 | 1008.9 |
| 20260906210531 | 82 | 216 | 6.1 | 12.2 | 0.00 | 0.00 | 0.00 | 16 | 1009.0 |
| 20260906210031 | 83 | 215 | 7.8 | 15.6 | 0.00 | 0.00 | 0.00 | 17 | 1009.1 |
| 20260906205529 | 83 | 239 | 7.0 | 15.6 | 0.00 | 0.00 | 0.00 | 17 | 1009.0 |
| 20260906205028 | 83 | 207 | 3.5 | 8.7 | 0.00 | 0.00 | 0.00 | 20 | 1008.7 |
| 20260906204528 | 83 | 215 | 6.1 | 12.2 | 0.00 | 0.00 | 0.00 | 17 | 1009.0 |
| 20260906204030 | 83 | 292 | 7.0 | 15.6 | 0.00 | 0.00 | 0.00 | 17 | 1009.0 |
| 20260906203528 | 83 | 293 | 8.7 | 15.6 | 0.00 | 0.00 | 0.00 | 19 | 1009.0 |
| 20260906203031 | 84 | 262 | 11.3 | 15.6 | 0.00 | 0.00 | 0.00 | 18 | 1008.9 |
| 20260906202528 | 83 | 236 | 7.0 | 13.9 | 0.00 | 0.00 | 0.00 | 19 | 1008.8 |
| 20260906202026 | 83 | 220 | 6.1 | 19.1 | 0.00 | 0.00 | 0.00 | 18 | 1008.9 |
| 20260906201526 | 83 | 216 | 8.7 | 15.6 | 0.00 | 0.00 | 0.00 | 17 | 1008.9 |
| 20260906201025 | 83 | 218 | 10.4 | 15.6 | 0.00 | 0.00 | 0.00 | 18 | 1009.1 |
| 20260906200524 | 84 | 239 | 2.6 | 14.8 | 0.00 | 0.00 | 0.00 | 18 | 1009.2 |
| 20260906200023 | 84 | 240 | 3.5 | 11.3 | 0.00 | 0.00 | 0.00 | 20 | 1009.4 |
| 20260906195521 | 83 | 153 | 0.9 | 8.7 | 0.00 | 0.00 | 0.00 | 19 | 1009.4 |
| 20260906195020 | 83 | 195 | 2.6 | 11.3 | 0.00 | 0.00 | 0.00 | 22 | 1009.7 |
| 20260906194520 | 83 | 120 | 3.5 | 7.0 | 0.00 | 0.00 | 0.00 | 23 | 1009.7 |
| 20260906194018 | 82 | 127 | 2.6 | 9.6 | 0.00 | 0.00 | 0.00 | 21 | 1009.8 |
| 20260906193519 | 81 | 36 | 0.9 | 9.6 | 0.00 | 0.00 | 0.00 | 23 | 1009.8 |
| 20260906193017 | 82 | 118 | 6.1 | 8.7 | 0.00 | 0.00 | 0.00 | 23 | 1010.1 |
| 20260906192516 | 81 | 80 | 2.6 | 8.7 | 0.00 | 0.00 | 0.00 | 21 | 1010.2 |
| 20260906192014 | 81 | 89 | 4.3 | 7.8 | 0.00 | 0.00 | 0.00 | 24 | 1010.3 |
| 20260906191513 | 81 | 96 | 5.2 | 7.8 | 0.00 | 0.00 | 0.00 | 25 | 1010.4 |
| 20260906191011 | 79 | 115 | 3.5 | 7.0 | 0.00 | 0.00 | 0.00 | 24 | 1010.5 |
| 20260906190512 | 79 | 63 | 1.7 | 8.7 | 0.00 | 0.00 | 0.00 | 26 | 1010.7 |
| 20260906190009 | 79 | 95 | 6.1 | 8.7 | 0.00 | 0.00 | 0.00 | 25 | 1010.9 |
| 20260906185508 | 79 | 98 | 2.6 | 7.8 | 0.00 | 0.00 | 0.00 | 27 | 1011.0 |
| 20260906185010 | 79 | 115 | 5.2 | 7.8 | 0.00 | 0.00 | 0.00 | 28 | 1011.0 |
| 20260906184507 | 78 | 73 | 2.6 | 8.7 | 0.00 | 0.00 | 0.00 | 28 | 1011.0 |
| 20260906184008 | 78 | 92 | 5.2 | 8.7 | 0.00 | 0.00 | 0.00 | 28 | 1011.1 |
| 20260906183504 | 78 | 117 | 3.5 | 7.8 | 0.00 | 0.00 | 0.00 | 27 | 1011.1 |
| 20260906183009 | 77 | 129 | 3.5 | 7.8 | 0.00 | 0.00 | 0.00 | 28 | 1011.2 |
| 20260906182503 | 77 | 102 | 4.3 | 7.8 | 0.00 | 0.00 | 0.00 | 29 | 1011.3 |
| 20260906182101 | 77 | 80 | 3.5 | 7.0 | 0.00 | 0.00 | 0.00 | 28 | 1011.5 |
| 20260906181600 | 77 | 118 | 2.6 | 8.7 | 0.00 | 0.00 | 0.00 | 28 | 1011.6 |
| 20260906181059 | 76 | 123 | 4.3 | 9.6 | 0.00 | 0.00 | 0.00 | 29 | 1011.7 |
| 20260906180559 | 76 | 102 | 7.0 | 9.6 | 0.00 | 0.00 | 0.00 | 30 | 1011.8 |
| 20260906180056 | 76 | 120 | 4.3 | 8.7 | 0.00 | 0.00 | 0.00 | 29 | 1012.0 |
| 20260906175555 | 76 | 109 | 5.2 | 8.7 | 0.00 | 0.00 | 0.00 | 29 | 1012.1 |
| 20260906175059 | 75 | 107 | 6.1 | 10.4 | 0.00 | 0.00 | 0.00 | 29 | 1012.1 |
| 20260906174554 | 75 | 104 | 6.1 | 10.4 | 0.00 | 0.00 | 0.00 | 31 | 1012.2 |
| 20260906174051 | 75 | 104 | 5.2 | 10.4 | 0.00 | 0.00 | 0.00 | 31 | 1012.3 |
| 20260906173550 | 75 | 92 | 3.5 | 10.4 | 0.00 | 0.00 | 0.00 | 31 | 1012.4 |
| 20260906173050 | 75 | 107 | 6.1 | 8.7 | 0.00 | 0.00 | 0.00 | 31 | 1012.5 |
| 20260906172554 | 75 | 114 | 4.3 | 9.6 | 0.00 | 0.00 | 0.00 | 32 | 1012.7 |
| 20260906172048 | 74 | 108 | 4.3 | 9.6 | 0.00 | 0.00 | 0.00 | 32 | 1012.7 |
| 20260906171546 | 74 | 120 | 5.2 | 7.8 | 0.00 | 0.00 | 0.00 | 32 | 1012.8 |
| 20260906171044 | 74 | 79 | 3.5 | 7.8 | 0.00 | 0.00 | 0.00 | 31 | 1012.9 |
| 20260906170544 | 74 | 119 | 3.5 | 8.7 | 0.00 | 0.00 | 0.00 | 32 | 1012.9 |
| 20260906170043 | 74 | 114 | 5.2 | 8.7 | 0.00 | 0.00 | 0.00 | 31 | 1013.0 |
| 20260906165543 | 74 | 118 | 1.7 | 7.8 | 0.00 | 0.00 | 0.00 | 32 | 1013.1 |
| 20260906165041 | 73 | 108 | 2.6 | 7.8 | 0.00 | 0.00 | 0.00 | 31 | 1013.2 |
| 20260906164538 | 73 | 116 | 4.3 | 8.7 | 0.00 | 0.00 | 0.00 | 32 | 1013.1 |
| 20260906164037 | 73 | 129 | 1.7 | 5.2 | 0.00 | 0.00 | 0.00 | 32 | 1013.2 |
| 20260906163536 | 72 | 127 | 1.7 | 4.3 | 0.00 | 0.00 | 0.00 | 34 | 1013.2 |
| 20260906163035 | 71 | 307 | 0.0 | 6.1 | 0.00 | 0.00 | 0.00 | 35 | 1013.2 |
| 20260906162533 | 71 | 282 | 2.6 | 6.1 | 0.00 | 0.00 | 0.00 | 34 | 1013.4 |
| 20260906162032 | 72 | 254 | 0.9 | 3.5 | 0.00 | 0.00 | 0.00 | 33 | 1013.5 |
| 20260906161530 | 71 | 71 | 0.0 | 1.7 | 0.00 | 0.00 | 0.00 | 35 | 1013.5 |
| 20260906161028 | 71 | 71 | 0.0 | 5.2 | 0.00 | 0.00 | 0.00 | 33 | 1013.6 |
| 20260906160528 | 71 | 95 | 2.6 | 5.2 | 0.00 | 0.00 | 0.00 | 34 | 1013.4 |
| 20260906160026 | 71 | 64 | 0.9 | 5.2 | 0.00 | 0.00 | 0.00 | 35 | 1013.5 |
| 20260906155524 | 70 | 81 | 0.0 | 5.2 | 0.00 | 0.00 | 0.00 | 36 | 1013.5 |
| 20260906155022 | 70 | 23 | 1.7 | 5.2 | 0.00 | 0.00 | 0.00 | 35 | 1013.5 |
| 20260906154521 | 69 | 311 | 0.9 | 5.2 | 0.00 | 0.00 | 0.00 | 37 | 1013.5 |
| 20260906154022 | 69 | 10 | 3.5 | 7.0 | 0.00 | 0.00 | 0.00 | 36 | 1013.7 |
| 20260906153518 | 69 | 18 | 3.5 | 7.0 | 0.00 | 0.00 | 0.00 | 36 | 1013.6 |
| 20260906153026 | 69 | 25 | 2.6 | 6.1 | 0.00 | 0.00 | 0.00 | 36 | 1013.7 |
| 20260906152515 | 69 | 97 | 2.6 | 6.1 | 0.00 | 0.00 | 0.00 | 37 | 1013.6 |
| 20260906152014 | 69 | 25 | 0.0 | 5.2 | 0.00 | 0.00 | 0.00 | 37 | 1013.8 |
| 20260906151513 | 69 | 78 | 0.9 | 7.8 | 0.00 | 0.00 | 0.00 | 37 | 1013.8 |
| 20260906151012 | 70 | 49 | 5.2 | 7.8 | 0.00 | 0.00 | 0.00 | 37 | 1013.8 |
| 20260906150510 | 69 | 71 | 0.9 | 5.2 | 0.00 | 0.00 | 0.00 | 37 | 1013.9 |
| 20260906150008 | 69 | 104 | 2.6 | 5.2 | 0.00 | 0.00 | 0.00 | 37 | 1013.9 |
| 20260906145507 | 68 | 59 | 2.6 | 7.0 | 0.00 | 0.00 | 0.00 | 37 | 1013.9 |
| 20260906145007 | 68 | 25 | 3.5 | 7.0 | 0.00 | 0.00 | 0.00 | 38 | 1013.8 |
| 20260906144504 | 68 | 39 | 1.7 | 4.3 | 0.00 | 0.00 | 0.00 | 38 | 1013.9 |
| 20260906144002 | 66 | 235 | 0.0 | 2.6 | 0.00 | 0.00 | 0.00 | 40 | 1013.9 |
| 20260906143501 | 64 | 235 | 0.9 | 2.6 | 0.00 | 0.00 | 0.00 | 43 | 1013.9 |
| 20260906143101 | 62 | 235 | 0.0 | 1.7 | 0.00 | 0.00 | 0.00 | 46 | 1013.9 |
| 20260906142559 | 60 | 235 | 0.0 | 1.7 | 0.00 | 0.00 | 0.00 | 50 | 1013.9 |
| 20260906142058 | 59 | 235 | 0.0 | 1.7 | 0.00 | 0.00 | 0.00 | 49 | 1013.9 |
| 20260906141555 | 57 | 235 | 0.0 | 0.9 | 0.00 | 0.00 | 0.00 | 51 | 1013.9 |
| 20260906141054 | 56 | 235 | 0.0 | 2.6 | 0.00 | 0.00 | 0.00 | 50 | 1014.0 |
| 20260906140553 | 56 | 235 | 0.9 | 3.5 | 0.00 | 0.00 | 0.00 | 51 | 1014.0 |
| 20260906140052 | 55 | 235 | 0.0 | 3.5 | 0.00 | 0.00 | 0.00 | 48 | 1014.0 |
| 20260906135550 | 54 | 235 | 0.0 | 2.6 | 0.00 | 0.00 | 0.00 | 46 | 1013.9 |
| 20260906135048 | 54 | 235 | 1.7 | 2.6 | 0.00 | 0.00 | 0.00 | 50 | 1014.0 |
| 20260906134556 | 53 | 235 | 0.9 | 2.6 | 0.00 | 0.00 | 0.00 | 49 | 1014.0 |
| 20260906134046 | 52 | 235 | 1.7 | 4.3 | 0.00 | 0.00 | 0.00 | 51 | 1014.0 |
| 20260906133544 | 53 | 226 | 3.5 | 4.3 | 0.00 | 0.00 | 0.00 | 51 | 1014.0 |
| 20260906133107 | 53 | 215 | 0.9 | 3.5 | 0.00 | 0.00 | 0.00 | 48 | 1014.0 |
| 20260906132542 | 53 | 215 | 0.0 | 4.3 | 0.00 | 0.00 | 0.00 | 51 | 1014.0 |
| 20260906132040 | 52 | 210 | 2.6 | 4.3 | 0.00 | 0.00 | 0.00 | 47 | 1013.8 |
| 20260906131538 | 52 | 249 | 3.5 | 4.3 | 0.00 | 0.00 | 0.00 | 47 | 1013.8 |
| 20260906131036 | 52 | 237 | 0.0 | 1.7 | 0.00 | 0.00 | 0.00 | 48 | 1013.9 |
| 20260906130536 | 52 | 237 | 0.0 | 1.7 | 0.00 | 0.00 | 0.00 | 47 | 1013.9 |
| 20260906130038 | 51 | 237 | 0.0 | 2.6 | 0.00 | 0.00 | 0.00 | 49 | 1013.8 |
| 20260906125535 | 51 | 237 | 1.7 | 5.2 | 0.00 | 0.00 | 0.00 | 48 | 1013.8 |
| 20260906125034 | 52 | 239 | 2.6 | 5.2 | 0.00 | 0.00 | 0.00 | 48 | 1013.7 |
| 20260906124534 | 52 | 265 | 2.6 | 3.5 | 0.00 | 0.00 | 0.00 | 48 | 1013.7 |
| 20260906124034 | 51 | 289 | 0.9 | 4.3 | 0.00 | 0.00 | 0.00 | 50 | 1013.7 |
| 20260906123537 | 51 | 289 | 1.7 | 4.3 | 0.00 | 0.00 | 0.00 | 50 | 1013.7 |
| 20260906123033 | 51 | 267 | 2.6 | 3.5 | 0.00 | 0.00 | 0.00 | 50 | 1013.7 |
| 20260906122533 | 51 | 241 | 2.6 | 3.5 | 0.00 | 0.00 | 0.00 | 49 | 1013.7 |
| 20260906122032 | 51 | 275 | 0.9 | 5.2 | 0.00 | 0.00 | 0.00 | 50 | 1013.7 |
| 20260906121530 | 52 | 242 | 2.6 | 5.2 | 0.00 | 0.00 | 0.00 | 51 | 1013.6 |
| 20260906121029 | 53 | 220 | 0.9 | 3.5 | 0.00 | 0.00 | 0.00 | 48 | 1013.6 |
| 20260906120529 | 53 | 286 | 1.7 | 2.6 | 0.00 | 0.00 | 0.00 | 46 | 1013.5 |
| 20260906120027 | 53 | 274 | 1.7 | 3.5 | 0.00 | 0.00 | 0.00 | 47 | 1013.4 |
| 20260906115531 | 54 | 274 | 1.7 | 3.5 | 0.00 | 0.00 | 0.00 | 46 | 1013.5 |
| 20260906115025 | 54 | 272 | 0.9 | 3.5 | 0.00 | 0.00 | 0.00 | 46 | 1013.5 |
| 20260906114526 | 55 | 272 | 1.7 | 3.5 | 0.00 | 0.00 | 0.00 | 46 | 1013.4 |
| 20260906114024 | 54 | 241 | 1.7 | 3.5 | 0.00 | 0.00 | 0.00 | 49 | 1013.4 |
| 20260906113524 | 54 | 255 | 0.0 | 1.7 | 0.00 | 0.00 | 0.00 | 48 | 1013.3 |
| 20260906113023 | 54 | 255 | 0.0 | 1.7 | 0.00 | 0.00 | 0.00 | 47 | 1013.4 |
| 20260906112522 | 55 | 255 | 0.0 | 2.6 | 0.00 | 0.00 | 0.00 | 48 | 1013.4 |
| 20260906112022 | 55 | 255 | 0.9 | 3.5 | 0.00 | 0.00 | 0.00 | 48 | 1013.4 |
| 20260906111521 | 56 | 256 | 2.6 | 3.5 | 0.00 | 0.00 | 0.00 | 45 | 1013.3 |
| 20260906111020 | 56 | 222 | 0.0 | 1.7 | 0.00 | 0.00 | 0.00 | 46 | 1013.2 |
| 20260906110521 | 56 | 222 | 0.0 | 4.3 | 0.00 | 0.00 | 0.00 | 48 | 1013.2 |
| 20260906110020 | 55 | 222 | 2.6 | 4.3 | 0.00 | 0.00 | 0.00 | 48 | 1013.2 |
| 20260906105519 | 55 | 240 | 0.9 | 3.5 | 0.00 | 0.00 | 0.00 | 48 | 1013.2 |
| 20260906105018 | 56 | 268 | 1.7 | 3.5 | 0.00 | 0.00 | 0.00 | 47 | 1013.1 |
| 20260906104522 | 57 | 249 | 0.9 | 3.5 | 0.00 | 0.00 | 0.00 | 48 | 1013.1 |
| 20260906104016 | 58 | 248 | 0.0 | 1.7 | 0.00 | 0.00 | 0.00 | 43 | 1013.0 |
| 20260906103515 | 57 | 249 | 0.0 | 1.7 | 0.00 | 0.00 | 0.00 | 45 | 1013.0 |
| 20260906103015 | 56 | 248 | 0.9 | 1.7 | 0.00 | 0.00 | 0.00 | 45 | 1012.9 |
| 20260906102515 | 56 | 248 | 0.0 | 3.5 | 0.00 | 0.00 | 0.00 | 47 | 1012.8 |
| 20260906102015 | 57 | 248 | 1.7 | 3.5 | 0.00 | 0.00 | 0.00 | 45 | 1012.8 |
| 20260906101521 | 58 | 248 | 1.7 | 2.6 | 0.00 | 0.00 | 0.00 | 43 | 1012.8 |
| 20260906101012 | 58 | 328 | 0.0 | 1.7 | 0.00 | 0.00 | 0.00 | 43 | 1012.8 |
| 20260906100512 | 57 | 328 | 0.0 | 1.7 | 0.00 | 0.00 | 0.00 | 44 | 1012.7 |
| 20260906100012 | 57 | 328 | 0.0 | 0.9 | 0.00 | 0.00 | 0.00 | 44 | 1012.6 |
| 20260906095511 | 57 | 328 | 0.0 | 1.7 | 0.00 | 0.00 | 0.00 | 43 | 1012.6 |
| 20260906095014 | 57 | 328 | 0.0 | 2.6 | 0.00 | 0.00 | 0.00 | 43 | 1012.6 |
| 20260906094511 | 58 | 328 | 0.0 | 0.9 | 0.00 | 0.00 | 0.00 | 43 | 1012.6 |
| 20260906094010 | 58 | 328 | 0.0 | 2.6 | 0.00 | 0.00 | 0.00 | 41 | 1012.6 |
| 20260906093511 | 58 | 328 | 0.0 | 2.6 | 0.00 | 0.00 | 0.00 | 40 | 1012.5 |
| 20260906093010 | 59 | 328 | 0.0 | 3.5 | 0.00 | 0.00 | 0.00 | 39 | 1012.4 |
| 20260906092511 | 59 | 328 | 1.7 | 5.2 | 0.00 | 0.00 | 0.00 | 39 | 1012.3 |
| 20260906092008 | 59 | 270 | 2.6 | 5.2 | 0.00 | 0.00 | 0.00 | 40 | 1012.3 |
| 20260906091508 | 58 | 275 | 0.9 | 2.6 | 0.00 | 0.00 | 0.00 | 43 | 1012.3 |
| 20260906091007 | 58 | 275 | 0.0 | 1.7 | 0.00 | 0.00 | 0.00 | 42 | 1012.4 |
| 20260906090505 | 58 | 275 | 0.0 | 1.7 | 0.00 | 0.00 | 0.00 | 40 | 1012.2 |
| 20260906090006 | 59 | 275 | 0.0 | 1.7 | 0.00 | 0.00 | 0.00 | 40 | 1012.2 |
| 20260906085504 | 59 | 275 | 0.0 | 1.7 | 0.00 | 0.00 | 0.00 | 44 | 1012.1 |
| 20260906085003 | 59 | 275 | 0.0 | 2.6 | 0.00 | 0.00 | 0.00 | 38 | 1012.0 |
| 20260906084601 | 60 | 275 | 0.9 | 2.6 | 0.00 | 0.00 | 0.00 | 39 | 1011.9 |
| 20260906084102 | 61 | 321 | 0.0 | 2.6 | 0.00 | 0.00 | 0.00 | 36 | 1011.9 |
| 20260906083558 | 62 | 52 | 0.0 | 2.6 | 0.00 | 0.00 | 0.00 | 37 | 1011.8 |
| 20260906083101 | 62 | 52 | 1.7 | 4.3 | 0.00 | 0.00 | 0.00 | 35 | 1011.7 |
| 20260906082556 | 63 | 272 | 1.7 | 4.3 | 0.00 | 0.00 | 0.00 | 37 | 1011.8 |
| 20260906082056 | 64 | 282 | 0.0 | 1.7 | 0.00 | 0.00 | 0.00 | 34 | 1011.6 |
| 20260906081553 | 64 | 282 | 0.0 | 4.3 | 0.00 | 0.00 | 0.00 | 33 | 1011.7 |
| 20260906081051 | 65 | 281 | 2.6 | 4.3 | 0.00 | 0.00 | 0.00 | 33 | 1011.4 |
| 20260906080551 | 66 | 81 | 2.6 | 3.5 | 0.00 | 0.00 | 0.00 | 31 | 1011.3 |
| 20260906080050 | 67 | 81 | 1.7 | 3.5 | 0.00 | 0.00 | 0.00 | 31 | 1011.2 |
| 20260906075548 | 68 | 73 | 0.9 | 6.1 | 0.00 | 0.00 | 0.00 | 31 | 1011.2 |
| 20260906075046 | 69 | 73 | 0.9 | 6.1 | 0.00 | 0.00 | 0.00 | 29 | 1011.1 |
| 20260906074545 | 71 | 93 | 0.0 | 12.2 | 0.00 | 0.00 | 0.00 | 30 | 1011.2 |
| 20260906074043 | 71 | 354 | 2.6 | 16.5 | 0.00 | 0.00 | 0.00 | 29 | 1011.0 |
| 20260906073545 | 72 | 218 | 7.8 | 21.7 | 0.00 | 0.00 | 0.00 | 29 | 1011.0 |
| 20260906073043 | 72 | 222 | 11.3 | 21.7 | 0.00 | 0.00 | 0.00 | 29 | 1011.0 |
| 20260906072542 | 72 | 221 | 13.9 | 21.7 | 0.00 | 0.00 | 0.00 | 29 | 1010.9 |
| 20260906072042 | 72 | 243 | 12.2 | 20.0 | 0.00 | 0.00 | 0.00 | 29 | 1010.9 |
| 20260906071542 | 72 | 229 | 12.2 | 20.0 | 0.00 | 0.00 | 0.00 | 28 | 1010.7 |
| 20260906071041 | 73 | 220 | 12.2 | 18.2 | 0.00 | 0.00 | 0.00 | 29 | 1010.8 |
| 20260906070541 | 73 | 239 | 12.2 | 20.9 | 0.00 | 0.00 | 0.00 | 28 | 1010.8 |
| 20260906070040 | 73 | 236 | 10.4 | 20.9 | 0.00 | 0.00 | 0.00 | 28 | 1010.8 |
| 20260906065541 | 73 | 220 | 13.0 | 18.2 | 0.00 | 0.00 | 0.00 | 28 | 1010.8 |
| 20260906065040 | 73 | 250 | 11.3 | 18.2 | 0.00 | 0.00 | 0.00 | 29 | 1010.9 |
| 20260906064538 | 73 | 268 | 13.0 | 19.1 | 0.00 | 0.00 | 0.00 | 28 | 1010.8 |
| 20260906064038 | 73 | 221 | 11.3 | 19.1 | 0.00 | 0.00 | 0.00 | 28 | 1011.0 |
| 20260906063536 | 73 | 234 | 13.0 | 19.1 | 0.00 | 0.00 | 0.00 | 28 | 1010.8 |
| 20260906063037 | 73 | 232 | 13.9 | 19.1 | 0.00 | 0.00 | 0.00 | 28 | 1010.9 |
| 20260906062536 | 73 | 221 | 13.9 | 20.9 | 0.00 | 0.00 | 0.00 | 28 | 1010.9 |
| 20260906062036 | 73 | 208 | 13.9 | 21.7 | 0.00 | 0.00 | 0.00 | 28 | 1011.0 |
| 20260906061535 | 73 | 230 | 13.9 | 21.7 | 0.00 | 0.00 | 0.00 | 28 | 1011.0 |
| 20260906061034 | 73 | 240 | 12.2 | 18.2 | 0.00 | 0.00 | 0.00 | 28 | 1011.0 |
| 20260906060533 | 73 | 216 | 11.3 | 19.1 | 0.00 | 0.00 | 0.00 | 27 | 1011.2 |
| 20260906060033 | 73 | 235 | 13.0 | 19.1 | 0.00 | 0.00 | 0.00 | 27 | 1011.1 |
| 20260906055531 | 73 | 217 | 13.0 | 19.1 | 0.00 | 0.00 | 0.00 | 27 | 1011.1 |
| 20260906055032 | 73 | 226 | 13.9 | 20.9 | 0.00 | 0.00 | 0.00 | 27 | 1011.1 |
| 20260906054531 | 73 | 245 | 13.9 | 20.9 | 0.00 | 0.00 | 0.00 | 26 | 1011.1 |
| 20260906054033 | 74 | 243 | 14.8 | 21.7 | 0.00 | 0.00 | 0.00 | 26 | 1011.1 |
| 20260906053531 | 74 | 228 | 15.6 | 22.6 | 0.00 | 0.00 | 0.00 | 26 | 1011.0 |
| 20260906053034 | 74 | 235 | 15.6 | 22.6 | 0.00 | 0.00 | 0.00 | 26 | 1011.1 |
| 20260906052534 | 74 | 231 | 14.8 | 21.7 | 0.00 | 0.00 | 0.00 | 26 | 1011.0 |
| 20260906052031 | 74 | 228 | 14.8 | 21.7 | 0.00 | 0.00 | 0.00 | 26 | 1011.1 |
| 20260906051533 | 74 | 218 | 15.6 | 24.3 | 0.00 | 0.00 | 0.00 | 26 | 1011.1 |
| 20260906051030 | 73 | 258 | 15.6 | 24.3 | 0.00 | 0.00 | 0.00 | 27 | 1011.1 |
| 20260906050530 | 72 | 250 | 16.5 | 23.5 | 0.00 | 0.00 | 0.00 | 27 | 1011.2 |
| 20260906050030 | 71 | 218 | 7.8 | 13.0 | 0.00 | 0.00 | 0.00 | 28 | 1011.5 |
| 20260906045531 | 71 | 249 | 2.6 | 8.7 | 0.00 | 0.00 | 0.00 | 29 | 1011.6 |
| 20260906045032 | 71 | 243 | 1.7 | 10.4 | 0.00 | 0.00 | 0.00 | 28 | 1011.7 |
| 20260906044530 | 71 | 212 | 6.1 | 13.9 | 0.00 | 0.00 | 0.00 | 29 | 1011.7 |
| 20260906044030 | 71 | 185 | 9.6 | 13.9 | 0.00 | 0.00 | 0.00 | 28 | 1011.6 |
| 20260906043529 | 71 | 222 | 6.1 | 12.2 | 0.00 | 0.00 | 0.00 | 29 | 1011.6 |
| 20260906043030 | 71 | 222 | 6.1 | 11.3 | 0.00 | 0.00 | 0.00 | 28 | 1011.6 |
| 20260906042530 | 71 | 220 | 7.0 | 9.6 | 0.00 | 0.00 | 0.00 | 28 | 1011.5 |
| 20260906042029 | 72 | 222 | 7.0 | 9.6 | 0.00 | 0.00 | 0.00 | 28 | 1011.5 |
| 20260906041529 | 71 | 214 | 6.1 | 10.4 | 0.00 | 0.00 | 0.00 | 29 | 1011.6 |
| 20260906041028 | 70 | 201 | 4.3 | 7.0 | 0.00 | 0.00 | 0.00 | 29 | 1011.6 |
| 20260906040528 | 70 | 216 | 4.3 | 7.0 | 0.00 | 0.00 | 0.00 | 29 | 1011.6 |
| 20260906040035 | 70 | 240 | 2.6 | 6.1 | 0.00 | 0.00 | 0.00 | 29 | 1011.5 |
| 20260906035528 | 70 | 247 | 0.9 | 5.2 | 0.00 | 0.00 | 0.00 | 29 | 1011.4 |
| 20260906035028 | 70 | 187 | 0.0 | 3.5 | 0.00 | 0.00 | 0.00 | 29 | 1011.5 |
| 20260906034538 | 71 | 227 | 0.9 | 3.5 | 0.00 | 0.00 | 0.00 | 28 | 1011.5 |
| 20260906034028 | 71 | 251 | 0.0 | 6.1 | 0.00 | 0.00 | 0.00 | 28 | 1011.5 |
| 20260906033528 | 70 | 234 | 2.6 | 6.1 | 0.00 | 0.00 | 0.00 | 28 | 1011.5 |
| 20260906033028 | 70 | 232 | 0.9 | 4.3 | 0.00 | 0.00 | 0.00 | 28 | 1011.5 |
| 20260906032533 | 70 | 164 | 1.7 | 4.3 | 0.00 | 0.00 | 0.00 | 29 | 1011.5 |
| 20260906032028 | 70 | 193 | 0.9 | 4.3 | 0.00 | 0.00 | 0.00 | 29 | 1011.5 |
| 20260906031531 | 69 | 191 | 0.0 | 1.7 | 0.00 | 0.00 | 0.00 | 30 | 1011.4 |
| 20260906031029 | 69 | 191 | 0.0 | 0.0 | 0.00 | 0.00 | 0.00 | 29 | 1011.4 |
| 20260906030527 | 69 | 191 | 0.0 | 0.9 | 0.00 | 0.00 | 0.00 | 29 | 1011.3 |
| 20260906030027 | 69 | 191 | 0.0 | 0.9 | 0.00 | 0.00 | 0.00 | 29 | 1011.3 |
| 20260906025529 | 69 | 191 | 0.0 | 3.5 | 0.00 | 0.00 | 0.00 | 29 | 1011.2 |
| 20260906025028 | 70 | 184 | 0.9 | 3.5 | 0.00 | 0.00 | 0.00 | 28 | 1011.2 |
| 20260906024526 | 70 | 187 | 0.9 | 4.3 | 0.00 | 0.00 | 0.00 | 28 | 1011.1 |
| 20260906024028 | 69 | 172 | 1.7 | 4.3 | 0.00 | 0.00 | 0.00 | 28 | 1011.0 |
| 20260906023530 | 68 | 196 | 0.9 | 3.5 | 0.00 | 0.00 | 0.00 | 29 | 1011.0 |
| 20260906023026 | 68 | 217 | 0.0 | 2.6 | 0.00 | 0.00 | 0.00 | 29 | 1010.9 |
| 20260906022526 | 69 | 227 | 0.9 | 2.6 | 0.00 | 0.00 | 0.00 | 31 | 1011.0 |
| 20260906022026 | 70 | 215 | 0.0 | 4.3 | 0.00 | 0.00 | 0.00 | 29 | 1010.9 |
| 20260906021526 | 70 | 215 | 1.7 | 4.3 | 0.00 | 0.00 | 0.00 | 28 | 1011.0 |
| 20260906021029 | 71 | 236 | 0.0 | 3.5 | 0.00 | 0.00 | 0.00 | 28 | 1010.9 |
| 20260906020525 | 71 | 224 | 1.7 | 3.5 | 0.00 | 0.00 | 0.00 | 27 | 1010.9 |
| 20260906020029 | 72 | 227 | 0.9 | 3.5 | 0.00 | 0.00 | 0.00 | 27 | 1010.8 |
| 20260906015525 | 72 | 247 | 0.0 | 2.6 | 0.00 | 0.00 | 0.00 | 27 | 1010.8 |
| 20260906015025 | 74 | 247 | 0.9 | 4.3 | 0.00 | 0.00 | 0.00 | 27 | 1010.7 |
| 20260906014533 | 75 | 208 | 2.6 | 5.2 | 0.00 | 0.00 | 0.00 | 26 | 1010.7 |
| 20260906014024 | 76 | 226 | 3.5 | 9.6 | 0.00 | 0.00 | 0.00 | 25 | 1010.7 |
| 20260906013525 | 77 | 257 | 6.1 | 9.6 | 0.00 | 0.00 | 0.00 | 22 | 1010.6 |
| 20260906013030 | 78 | 225 | 6.1 | 13.0 | 0.00 | 0.00 | 0.00 | 21 | 1010.6 |
| 20260906012526 | 78 | 223 | 9.6 | 13.0 | 0.00 | 0.00 | 0.00 | 21 | 1010.7 |
| 20260906012024 | 77 | 227 | 5.2 | 8.7 | 0.00 | 0.00 | 0.00 | 23 | 1010.7 |
| 20260906011524 | 78 | 235 | 6.1 | 10.4 | 0.00 | 0.00 | 0.00 | 22 | 1010.8 |
| 20260906011025 | 79 | 251 | 5.2 | 8.7 | 0.00 | 0.00 | 0.00 | 21 | 1010.8 |
| 20260906010526 | 80 | 218 | 4.3 | 7.0 | 0.00 | 0.00 | 0.00 | 20 | 1010.7 |
| 20260906010023 | 81 | 233 | 4.3 | 11.3 | 0.00 | 0.00 | 0.00 | 20 | 1010.7 |
| 20260906005527 | 81 | 231 | 8.7 | 13.9 | 0.00 | 0.00 | 0.00 | 19 | 1010.6 |
| 20260906005023 | 81 | 224 | 7.8 | 14.8 | 0.00 | 0.00 | 0.00 | 19 | 1010.6 |
| 20260906004522 | 82 | 236 | 9.6 | 15.6 | 0.00 | 0.00 | 0.00 | 19 | 1010.6 |
| 20260906004022 | 82 | 239 | 12.2 | 15.6 | 0.00 | 0.00 | 0.00 | 19 | 1010.5 |
| 20260906003522 | 82 | 238 | 4.3 | 9.6 | 0.00 | 0.00 | 0.00 | 20 | 1010.5 |
| 20260906003022 | 82 | 232 | 5.2 | 9.6 | 0.00 | 0.00 | 0.00 | 21 | 1010.5 |
| 20260906002521 | 83 | 218 | 4.3 | 9.6 | 0.00 | 0.00 | 0.00 | 20 | 1010.5 |
| 20260906002022 | 83 | 251 | 6.1 | 12.2 | 0.00 | 0.00 | 0.00 | 19 | 1010.4 |
| 20260906001521 | 83 | 272 | 7.8 | 12.2 | 0.00 | 0.00 | 0.00 | 19 | 1010.4 |
| 20260906001021 | 83 | 239 | 7.8 | 11.3 | 0.00 | 0.00 | 0.00 | 21 | 1010.5 |
| 20260906000521 | 83 | 230 | 6.1 | 10.4 | 0.00 | 0.00 | 0.00 | 19 | 1010.5 |
| 20260906000023 | 82 | 270 | 7.0 | 10.4 | 0.00 | 0.00 | 0.00 | 20 | 1010.6 |
| 20260905235523 | 82 | 224 | 6.1 | 16.5 | 0.00 | 0.00 | 0.00 | 20 | 1010.5 |
| 20260905235023 | 81 | 213 | 10.4 | 16.5 | 0.00 | 0.00 | 0.00 | 21 | 1010.6 |
| 20260905234522 | 81 | 210 | 11.3 | 14.8 | 0.00 | 0.00 | 0.00 | 20 | 1010.4 |
| 20260905234020 | 82 | 226 | 9.6 | 13.9 | 0.00 | 0.00 | 0.00 | 21 | 1010.4 |
| 20260905233520 | 82 | 225 | 7.8 | 13.0 | 0.00 | 0.00 | 0.00 | 21 | 1010.5 |
| 20260905233029 | 81 | 225 | 6.1 | 10.4 | 0.00 | 0.00 | 0.00 | 21 | 1010.4 |
| 20260905232524 | 80 | 212 | 5.2 | 10.4 | 0.00 | 0.00 | 0.00 | 23 | 1010.4 |
| 20260905232020 | 80 | 210 | 4.3 | 10.4 | 0.00 | 0.00 | 0.00 | 22 | 1010.3 |
| 20260905231519 | 81 | 209 | 5.2 | 13.9 | 0.00 | 0.00 | 0.00 | 21 | 1010.5 |
| 20260905231022 | 83 | 242 | 9.6 | 13.9 | 0.00 | 0.00 | 0.00 | 21 | 1010.4 |
| 20260905230519 | 83 | 196 | 0.9 | 11.3 | 0.00 | 0.00 | 0.00 | 21 | 1010.3 |
| 20260905230019 | 82 | 235 | 4.3 | 11.3 | 0.00 | 0.00 | 0.00 | 20 | 1010.3 |
| 20260905225518 | 81 | 226 | 2.6 | 9.6 | 0.00 | 0.00 | 0.00 | 23 | 1010.2 |
| 20260905225018 | 81 | 216 | 6.1 | 10.4 | 0.00 | 0.00 | 0.00 | 23 | 1010.3 |
| 20260905224521 | 82 | 224 | 7.0 | 13.0 | 0.00 | 0.00 | 0.00 | 21 | 1010.4 |
| 20260905224022 | 83 | 240 | 7.0 | 16.5 | 0.00 | 0.00 | 0.00 | 21 | 1010.2 |